Precipitable_Water
1.51 1.63 1.70 1.62 1.52 1.36 1.24 1.34 1.28 1.07 1.10 1.19 1.17 1.15 1.16 1.20 1.29 1.29 1.19 1.11 1.01 0.98 0.97 0.98 0.95 0.95 0.92 0.94 0.97 0.95 0.92 0.96 0.90 0.98 1.06 1.12 1.27 1.34 1.10 0.89 0.93 1.11 0.99
1.44 1.61 1.65 1.65 1.55 1.52 1.32 1.35 1.38 1.21 1.12 1.16 1.23 1.22 1.22 1.24 1.25 1.28 1.27 1.12 1.05 1.03 0.97 1.00 0.98 0.96 0.88 0.85 0.86 0.84 0.82 0.83 0.84 0.83 0.87 0.89 0.98 1.01 1.01 0.99 0.96 1.02 1.13
1.37 1.53 1.60 1.60 1.59 1.47 1.48 1.28 1.39 1.40 1.24 1.18 1.19 1.20 1.19 1.24 1.26 1.26 1.19 1.11 1.09 1.04 0.95 0.94 0.97 1.01 1.02 1.00 0.91 0.84 0.84 0.86 0.83 0.85 0.84 1.05 1.06 1.19 1.22 1.32 1.35 1.28 1.14
1.18 1.38 1.51 1.55 1.55 1.51 1.48 1.49 1.36 1.43 1.38 1.22 1.18 1.20 1.23 1.25 1.28 1.22 1.20 1.25 1.15 1.03 0.88 0.85 0.88 0.95 1.02 1.10 1.00 0.98 0.98 0.99 0.97 0.88 1.15 1.25 1.25 1.47 1.47 1.43 1.33 1.19 1.17
0.70 1.08 1.31 1.42 1.48 1.44 1.45 1.52 1.51 1.45 1.44 1.29 1.16 1.29 1.22 1.25 1.21 1.18 1.31 1.42 1.30 1.04 0.94 0.81 0.78 0.87 0.96 0.98 1.00 1.03 1.07 1.06 1.08 0.99 1.31 1.43 1.46 1.51 1.41 1.32 1.22 1.14 1.09
0.54 0.58 0.83 1.22 1.31 1.39 1.38 1.52 1.60 1.52 1.44 1.39 1.22 1.11 1.11 1.19 1.22 1.32 1.59 1.57 1.36 1.07 1.00 0.87 0.79 0.78 0.86 0.90 1.01 1.02 1.03 1.02 1.07 1.06 1.27 1.42 1.42 1.39 1.30 1.25 1.17 1.12 1.06
0.46 0.50 0.52 0.93 1.20 1.37 1.45 1.44 1.53 1.58 1.46 1.39 1.31 1.19 1.15 1.16 1.26 1.35 1.53 1.63 1.48 1.21 1.07 0.95 0.77 0.74 0.78 0.86 0.97 0.95 1.04 1.05 1.12 1.07 1.16 1.27 1.30 1.25 1.20 1.15 1.07 0.97 0.90
0.45 0.47 0.45 0.53 0.94 1.18 1.33 1.45 1.52 1.53 1.50 1.43 1.38 1.32 1.28 1.26 1.56 1.46 1.40 1.57 1.48 1.30 1.12 0.97 0.76 0.74 0.78 0.88 0.97 0.93 1.02 1.01 1.08 1.06 1.06 1.12 1.17 1.12 1.06 1.03 0.93 0.86 0.84
0.49 0.45 0.46 0.47 0.55 0.94 1.17 1.26 1.45 1.56 1.50 1.48 1.49 1.43 1.34 1.53 1.73 1.59 1.49 1.47 1.47 1.32 1.13 0.90 0.75 0.76 0.78 0.90 0.92 0.96 0.99 1.01 1.01 1.06 1.05 1.05 1.05 1.00 0.95 0.92 0.87 0.88 0.87
0.52 0.52 0.50 0.50 0.51 0.77 1.02 1.25 1.28 1.51 1.54 1.58 1.54 1.56 1.55 1.71 1.76 1.62 1.40 1.24 1.28 1.25 1.03 0.80 0.73 0.80 0.81 0.91 0.87 0.96 0.97 1.05 1.06 1.12 1.10 1.07 1.03 0.98 0.93 0.93 1.00 1.05 1.04
0.49 0.54 0.56 0.53 0.53 0.62 0.81 1.06 1.25 1.41 1.53 1.63 1.61 1.60 1.70 1.78 1.76 1.61 1.34 1.20 1.22 1.17 0.98 0.73 0.74 0.84 1.02 0.98 0.92 0.96 1.00 1.11 1.12 1.12 1.08 1.06 1.00 0.83 0.85 0.97 1.04 1.03 1.06
0.43 0.49 0.58 0.57 0.54 0.58 0.74 0.86 1.07 1.33 1.51 1.56 1.66 1.64 1.78 1.78 1.75 1.61 1.33 1.15 1.20 1.10 0.96 0.73 0.75 0.91 1.03 0.95 0.93 0.94 1.03 1.11 1.09 1.11 1.09 1.03 0.86 0.82 0.94 1.08 1.03 1.00 1.03
0.47 0.50 0.57 0.60 0.59 0.59 0.61 0.80 0.88 1.17 1.40 1.55 1.61 1.68 1.75 1.78 1.72 1.66 1.34 1.07 1.03 0.96 0.89 0.76 0.91 0.91 0.94 0.90 0.88 0.94 1.06 1.05 1.07 1.05 1.02 0.97 0.85 0.85 0.96 1.07 1.01 1.03 0.97
0.48 0.51 0.58 0.62 0.61 0.63 0.66 0.67 0.84 0.91 1.26 1.47 1.61 1.67 1.68 1.70 1.66 1.59 1.33 1.01 0.88 0.94 0.83 0.77 0.84 0.91 0.90 0.90 0.86 0.94 1.06 1.03 1.02 0.98 0.92 0.88 0.88 1.02 1.08 1.05 0.94 0.98 0.97
0.44 0.47 0.57 0.65 0.64 0.66 0.67 0.70 0.75 0.86 0.99 1.28 1.56 1.69 1.72 1.66 1.64 1.60 1.32 1.02 0.81 0.90 0.82 0.74 0.84 0.80 0.85 0.87 0.90 0.92 1.01 1.00 0.97 0.93 0.88 0.86 0.96 1.04 1.05 0.98 0.91 0.96 0.92
0.48 0.50 0.60 0.67 0.71 0.72 0.68 0.68 0.73 0.84 0.90 1.06 1.36 1.53 1.60 1.63 1.64 1.58 1.37 1.07 0.85 0.80 0.79 0.79 0.76 0.76 0.80 0.86 0.89 0.91 0.95 0.94 0.95 0.91 0.85 0.84 0.96 0.99 0.98 0.95 0.95 0.98 0.94
0.55 0.58 0.64 0.72 0.78 0.76 0.75 0.73 0.71 0.74 0.93 1.02 1.11 1.48 1.47 1.67 1.56 1.58 1.40 1.18 0.90 0.78 0.78 0.82 0.77 0.78 0.80 0.87 0.86 0.94 0.92 0.96 0.94 0.89 0.79 0.84 0.93 0.93 0.94 0.93 0.90 0.93 0.95
0.64 0.64 0.71 0.77 0.78 0.80 0.79 0.78 0.75 0.74 0.74 0.82 1.01 1.17 1.43 1.43 1.56 1.58 1.41 1.26 1.02 0.80 0.78 0.81 0.80 0.83 0.89 0.81 0.84 0.89 0.93 0.92 0.91 0.86 0.77 0.83 0.85 0.87 0.91 0.88 0.90 0.88 0.89
0.71 0.70 0.73 0.79 0.80 0.82 0.83 0.83 0.78 0.75 0.74 0.75 0.75 0.87 1.22 1.36 1.47 1.61 1.45 1.28 1.15 0.83 0.79 0.79 0.78 0.85 0.80 0.77 0.82 0.86 0.84 0.85 0.85 0.81 0.75 0.78 0.85 0.90 0.90 0.88 0.88 0.88 0.89
0.74 0.71 0.74 0.80 0.84 0.87 0.87 0.86 0.81 0.78 0.77 0.79 0.76 0.73 0.99 1.22 1.43 1.60 1.49 1.35 1.20 0.86 0.76 0.80 0.76 0.77 0.77 0.77 0.78 0.80 0.82 0.83 0.84 0.77 0.74 0.79 0.81 0.84 0.86 0.84 0.84 0.85 0.88
0.74 0.74 0.76 0.81 0.89 0.93 0.93 0.87 0.79 0.72 0.75 0.78 0.81 0.79 0.77 0.99 1.40 1.55 1.51 1.39 1.20 0.86 0.74 0.78 0.78 0.75 0.73 0.78 0.71 0.73 0.77 0.81 0.81 0.77 0.77 0.78 0.78 0.80 0.80 0.79 0.80 0.82 0.85
0.73 0.75 0.77 0.84 0.92 0.95 0.95 0.95 0.88 0.82 0.79 0.81 0.87 0.86 0.81 0.92 1.15 1.48 1.48 1.40 1.19 0.90 0.79 0.79 0.75 0.70 0.72 0.73 0.63 0.61 0.53 0.63 0.72 0.73 0.72 0.70 0.68 0.69 0.68 0.72 0.73 0.76 0.77
0.75 0.75 0.78 0.87 0.95 0.98 1.00 0.96 0.92 0.89 0.84 0.77 0.81 0.84 0.89 0.94 1.13 1.42 1.45 1.34 1.24 0.90 0.73 0.78 0.74 0.69 0.60 0.66 0.71 0.60 0.48 0.44 0.51 0.61 0.62 0.63 0.63 0.62 0.62 0.62 0.64 0.69 0.73
0.77 0.81 0.84 0.90 0.93 0.97 1.00 0.97 0.91 0.84 0.79 0.77 0.81 0.89 0.88 0.99 1.16 1.33 1.39 1.36 1.27 0.90 0.77 0.78 0.79 0.72 0.66 0.57 0.66 0.67 0.61 0.53 0.43 0.41 0.53 0.55 0.59 0.58 0.59 0.62 0.65 0.70 0.73
0.80 0.77 0.86 0.91 0.95 0.99 1.03 0.98 0.95 0.91 0.86 0.90 0.85 0.89 0.88 0.97 1.05 1.27 1.34 1.34 1.25 0.94 0.85 0.79 0.77 0.73 0.70 0.63 0.61 0.58 0.55 0.51 0.50 0.43 0.38 0.46 0.56 0.60 0.63 0.64 0.67 0.70 0.74
0.85 0.83 0.87 0.93 0.94 1.01 1.03 0.96 0.93 0.96 0.95 0.91 0.88 0.80 0.83 0.94 1.12 1.20 1.19 1.29 1.22 0.98 0.92 0.85 0.80 0.76 0.71 0.69 0.66 0.62 0.53 0.44 0.42 0.42 0.41 0.45 0.47 0.56 0.63 0.68 0.68 0.72 0.79
Wind_Speed
8 8 8 8 11 12 12 13 12 13 13 14 14 14 13 13 13 12 12 12 12 12 12 13 13 12 12 11 11 11 11 11 11 11 11 11 11 11 10 10 10 10 10
10 10 9 9 12 13 13 14 14 14 14 15 15 15 14 14 14 13 13 13 13 12 13 14 13 12 12 12 11 11 11 11 11 11 11 10 10 10 10 10 10 10 11
11 12 13 12 11 15 15 16 16 16 15 16 16 16 15 15 14 14 14 14 13 13 14 14 13 13 12 12 12 12 12 11 11 11 10 10 10 9 9 10 11 11 10
11 14 15 15 14 15 17 17 18 18 17 17 17 18 17 16 16 15 15 15 15 15 15 14 14 13 13 13 13 13 12 12 11 10 9 9 9 10 12 12 11 10 9
14 14 18 19 18 17 18 20 20 21 20 19 19 19 19 18 18 17 17 17 16 16 16 15 14 14 14 14 13 13 12 12 11 11 10 11 11 11 10 9 8 7 6
17 18 18 21 23 21 20 21 23 23 23 22 21 21 21 21 20 19 19 19 19 18 16 15 15 15 15 15 14 13 12 12 13 12 11 11 10 9 8 7 6 5 4
19 19 20 20 24 25 24 23 25 26 26 25 24 23 23 23 22 22 21 21 20 19 17 16 16 16 17 16 15 13 13 13 13 12 11 10 9 8 7 6 4 3 3
18 19 20 21 23 27 28 27 26 28 28 28 27 26 25 25 25 24 24 23 21 20 18 17 17 18 18 18 16 15 14 14 13 12 10 10 8 7 6 5 4 3 4
18 20 20 22 24 27 30 31 30 29 30 30 30 29 28 27 27 26 25 25 24 22 20 19 19 19 20 19 17 16 16 14 13 12 11 10 8 7 6 6 5 5 5
19 20 21 20 22 25 28 32 33 32 32 33 32 31 31 30 30 27 26 26 26 24 22 21 21 21 21 20 19 18 17 15 14 13 12 10 9 8 7 7 6 6 5
21 22 22 23 23 25 27 30 33 36 35 35 35 34 33 33 32 30 28 28 28 26 24 23 23 23 22 21 20 19 17 16 14 13 12 11 9 9 10 8 7 6 6
24 24 24 25 25 26 28 30 33 36 37 38 37 37 37 37 35 32 30 30 30 28 26 25 25 25 24 23 22 20 18 17 15 14 13 11 11 10 10 9 8 6 5
26 26 27 27 28 28 30 31 33 36 38 40 40 40 39 39 38 35 32 32 32 31 28 28 27 26 26 25 23 21 19 18 17 15 14 13 12 12 11 9 8 6 5
28 30 29 29 30 31 31 33 34 36 39 41 43 43 42 41 40 38 35 34 34 33 31 30 29 28 28 27 25 22 21 19 18 16 15 14 13 12 12 10 8 7 6
29 30 31 31 32 32 33 34 35 37 39 40 43 44 45 44 43 41 39 37 36 35 33 32 31 30 30 29 26 24 22 20 19 17 16 16 15 13 12 10 9 8 6
29 30 30 31 32 34 34 35 36 37 39 42 42 44 41 45 47 44 41 39 38 37 36 34 32 33 32 30 27 26 24 22 20 18 18 17 16 15 13 11 10 8 7
27 28 29 31 32 33 34 35 37 39 41 43 46 47 45 42 47 48 45 43 40 39 38 36 35 34 33 31 29 28 26 23 21 20 19 18 18 16 15 13 12 10 9
27 27 28 30 32 33 34 35 37 39 43 46 49 50 52 47 48 52 48 45 43 41 40 38 37 36 34 32 30 29 27 25 23 22 21 20 19 17 16 15 14 12 11
26 28 29 31 32 33 35 36 38 41 43 46 49 51 53 52 48 54 50 48 46 43 42 40 39 38 36 33 32 30 28 27 25 24 23 22 20 19 17 16 16 14 13
28 29 29 30 33 34 35 36 37 39 41 44 48 50 52 53 49 47 52 50 48 46 44 43 40 39 37 35 33 31 30 28 26 25 25 24 22 21 20 19 18 17 16
28 28 28 27 27 28 29 31 33 35 39 41 46 48 51 53 47 50 51 51 50 47 46 45 42 40 38 37 33 30 29 29 28 27 27 26 25 24 23 22 21 20 19
26 25 25 22 22 26 27 29 30 32 35 38 42 45 48 49 52 53 55 55 52 48 47 46 44 41 40 39 35 32 29 28 29 29 28 27 26 26 25 25 24 22 22
25 24 19 18 20 21 23 25 28 31 32 35 40 43 44 48 48 50 49 51 51 49 47 47 45 43 41 39 39 33 30 30 29 30 30 29 28 28 27 26 26 25 24
23 20 16 17 20 25 26 25 25 28 30 32 38 41 42 44 47 44 47 49 50 49 48 47 45 43 42 39 38 35 32 30 30 29 31 31 30 30 29 28 28 27 26
20 17 16 17 21 21 20 23 22 22 26 29 34 43 45 44 41 45 43 47 51 50 47 46 45 43 42 40 39 36 34 31 30 30 30 31 31 31 30 30 29 29 28
18 16 15 15 17 16 14 19 24 24 17 20 29 36 43 44 46 39 42 39 48 48 47 46 44 44 42 40 39 37 35 33 31 30 29 31 32 32 32 31 31 30 30
Wind_Direction
238 229 223 217 212 209 207 205 204 203 201 198 196 193 190 187 185 182 179 177 175 172 169 165 163 161 158 155 151 146 142 137 132 128 124 119 117 113 108 105 103 98 96
239 232 226 226 222 218 214 212 210 206 204 202 199 196 195 192 190 189 186 182 179 176 173 169 167 165 163 159 155 150 146 142 137 133 129 122 122 117 112 108 106 102 97
241 235 233 233 232 224 222 218 215 212 209 207 204 202 200 198 196 194 193 191 187 183 179 176 173 170 167 163 159 155 150 145 141 138 135 129 124 120 117 114 109 104 100
249 241 239 237 237 231 227 223 220 217 213 211 209 208 207 205 204 201 199 195 191 185 180 179 179 176 172 167 162 158 154 150 145 141 138 139 131 125 120 116 110 101 98
256 251 247 243 240 237 231 227 223 220 219 216 215 214 212 211 209 207 203 197 193 187 185 184 183 182 179 174 169 167 165 163 157 149 137 134 135 131 128 123 114 104 97
259 257 258 246 242 240 235 231 227 225 223 221 220 219 217 216 213 210 204 200 193 192 190 190 189 187 184 181 176 173 173 172 167 158 147 140 139 139 136 131 120 108 97
262 262 257 253 244 241 238 236 231 228 226 225 223 222 219 218 216 212 205 199 198 197 197 197 196 193 189 186 183 180 174 168 167 165 162 157 147 150 149 142 130 115 96
263 263 259 255 249 243 239 238 235 231 229 227 225 224 222 220 215 210 208 204 204 203 204 204 202 198 193 190 188 186 180 176 175 175 176 173 170 165 164 161 145 124 105
266 267 264 260 254 247 242 239 237 234 231 229 226 225 223 219 213 210 209 210 210 210 210 209 205 200 196 193 191 187 185 183 182 182 180 177 173 169 165 159 147 129 114
268 268 266 264 257 250 245 240 237 236 233 230 227 226 224 217 213 214 215 216 214 213 212 211 206 202 198 195 193 189 186 185 184 183 181 180 179 178 171 159 152 132 117
269 268 267 265 260 254 249 243 239 236 233 231 229 227 223 218 216 218 219 217 214 213 213 211 206 202 197 195 192 190 191 190 188 187 184 184 181 175 166 160 151 142 124
271 269 267 265 262 257 252 247 242 237 234 231 229 226 223 220 219 220 221 219 215 214 213 211 207 203 199 196 194 194 194 191 189 188 188 186 180 175 172 166 161 153 141
274 272 268 266 264 260 254 250 245 239 235 232 229 226 223 222 221 222 223 220 217 215 214 210 208 206 202 199 198 197 194 194 191 191 191 188 185 182 180 175 172 166 160
277 273 269 266 265 262 257 251 246 241 236 233 229 227 225 224 223 223 223 221 218 215 214 212 210 207 203 202 200 199 199 198 196 196 193 191 188 184 183 182 183 181 174
281 277 269 266 265 263 259 253 246 242 237 233 229 227 227 225 224 224 223 221 218 216 215 213 211 209 204 203 201 201 201 200 200 200 198 196 193 192 192 192 190 191 193
284 280 272 267 265 263 260 253 247 242 237 232 228 225 226 226 224 223 222 220 218 216 215 213 212 208 206 204 204 205 204 203 203 203 201 199 199 199 199 198 200 202 204
288 283 275 268 266 263 260 254 248 242 238 234 229 227 227 224 224 221 220 219 217 215 214 212 210 207 206 206 207 206 205 204 205 205 203 204 205 206 207 210 214 218 223
290 285 279 272 267 264 260 256 249 244 240 236 233 230 229 232 229 220 218 217 216 214 213 212 209 208 208 207 206 205 207 207 208 208 207 208 209 211 213 217 220 226 232
294 289 282 275 269 264 261 258 252 247 241 237 233 230 229 228 229 215 216 216 214 213 213 211 209 209 208 207 206 206 210 212 213 212 212 213 214 215 218 222 226 232 238
298 294 287 277 272 266 262 258 251 244 239 236 232 230 227 225 225 218 216 215 213 212 212 211 210 210 210 207 207 209 213 216 216 216 217 218 219 222 225 229 233 238 244
302 296 291 281 274 266 262 254 249 242 239 235 230 228 226 225 222 216 212 212 213 212 211 210 210 209 209 208 208 210 214 217 219 220 221 223 226 229 232 235 238 243 248
306 302 293 280 274 270 262 255 248 242 240 234 228 225 222 221 217 218 217 213 211 211 210 209 210 209 211 211 212 213 217 221 222 223 226 228 230 232 236 238 242 246 249
311 306 290 280 283 277 262 256 248 242 239 232 225 222 219 217 215 215 213 209 209 210 210 209 210 211 211 214 213 218 220 225 223 226 228 231 233 236 239 241 244 248 251
313 305 289 285 285 287 263 251 248 237 236 230 225 218 213 213 210 210 209 208 208 208 209 209 210 212 212 213 216 220 224 225 227 230 232 234 236 238 241 243 246 249 252
315 304 294 286 295 299 260 242 236 236 232 231 223 215 212 208 209 206 209 205 206 207 208 208 210 211 213 215 218 221 224 227 229 232 234 236 238 241 243 245 247 250 253
317 308 294 288 303 302 267 240 230 233 231 215 212 209 207 208 206 208 207 206 204 205 207 210 211 212 214 217 219 222 225 229 231 235 238 237 239 241 244 246 248 251 254